iso_date,epoch_date,Year,Hour,Min,DOY,POS_DOY,Lat,Lon,BP,Ts,Ta,has_bp,has_ts,has_ta,BuoyID,Buoy_Type,Buoy_Owner,Logistics,Hemisphere
2020-07-16T00:09:56Z,1594858196,2020,0,10,198.0069,198.0069,79.59113,4.42339,-999.00,-999.00,-999.0,no,no,no,300534060557700,NOMAD,AWI/USIABP,MOSAiC,North
2020-07-16T00:20:00Z,1594858801,2020,0,20,198.0139,198.0139,79.59078,4.42701,-999.00,-999.00,-999.0,no,no,no,300534060557700,NOMAD,AWI/USIABP,MOSAiC,North
2020-07-16T00:29:57Z,1594859397,2020,0,30,198.0208,198.0208,79.59022,4.43119,-999.00,-999.00,-999.0,no,no,no,300534060557700,NOMAD,AWI/USIABP,MOSAiC,North
2020-07-16T00:40:01Z,1594860002,2020,0,40,198.0278,198.0278,79.58979,4.43442,-999.00,-999.00,-999.0,no,no,no,300534060557700,NOMAD,AWI/USIABP,MOSAiC,North
2020-07-16T00:49:58Z,1594860598,2020,0,50,198.0347,198.0347,79.58939,4.43756,-999.00,-999.00,-999.0,no,no,no,300534060557700,NOMAD,AWI/USIABP,MOSAiC,North
2020-07-16T01:00:02Z,1594861203,2020,1,0,198.0417,198.0417,79.58925,4.44013,-999.00,-999.00,-999.0,no,no,no,300534060557700,NOMAD,AWI/USIABP,MOSAiC,North
2020-07-16T01:09:59Z,1594861799,2020,1,10,198.0486,198.0486,79.5888,4.44442,-999.00,-999.00,-999.0,no,no,no,300534060557700,NOMAD,AWI/USIABP,MOSAiC,North
2020-07-16T01:20:03Z,1594862404,2020,1,20,198.0556,198.0556,79.58859,4.44646,-999.00,-999.00,-999.0,no,no,no,300534060557700,NOMAD,AWI/USIABP,MOSAiC,North
2020-07-16T01:30:00Z,1594863000,2020,1,30,198.0625,198.0625,79.5883,4.45044,-999.00,-999.00,-999.0,no,no,no,300534060557700,NOMAD,AWI/USIABP,MOSAiC,North
2020-07-16T01:39:56Z,1594863596,2020,1,40,198.0694,198.0694,79.58793,4.45297,-999.00,-999.00,-999.0,no,no,no,300534060557700,NOMAD,AWI/USIABP,MOSAiC,North
2020-07-16T01:50:00Z,1594864201,2020,1,50,198.0764,198.0764,79.58761,4.4558,-999.00,-999.00,-999.0,no,no,no,300534060557700,NOMAD,AWI/USIABP,MOSAiC,North
2020-07-16T01:59:57Z,1594864797,2020,2,0,198.0833,198.0833,79.58736,4.4588,-999.00,-999.00,-999.0,no,no,no,300534060557700,NOMAD,AWI/USIABP,MOSAiC,North
2020-07-16T02:10:01Z,1594865402,2020,2,10,198.0903,198.0903,79.58699,4.46371,-999.00,-999.00,-999.0,no,no,no,300534060557700,NOMAD,AWI/USIABP,MOSAiC,North
2020-07-16T02:19:58Z,1594865998,2020,2,20,198.0972,198.0972,79.58643,4.46699,-999.00,-999.00,-999.0,no,no,no,300534060557700,NOMAD,AWI/USIABP,MOSAiC,North
2020-07-16T02:30:02Z,1594866603,2020,2,30,198.1042,198.1042,79.5858,4.46774,-999.00,-999.00,-999.0,no,no,no,300534060557700,NOMAD,AWI/USIABP,MOSAiC,North
2020-07-16T02:39:59Z,1594867199,2020,2,40,198.1111,198.1111,79.58536,4.47012,-999.00,-999.00,-999.0,no,no,no,300534060557700,NOMAD,AWI/USIABP,MOSAiC,North
2020-07-16T02:50:03Z,1594867804,2020,2,50,198.1181,198.1181,79.58488,4.47409,-999.00,-999.00,-999.0,no,no,no,300534060557700,NOMAD,AWI/USIABP,MOSAiC,North
2020-07-16T03:00:00Z,1594868400,2020,3,0,198.125,198.125,79.58441,4.47605,-999.00,-999.00,-999.0,no,no,no,300534060557700,NOMAD,AWI/USIABP,MOSAiC,North
2020-07-16T03:09:56Z,1594868996,2020,3,10,198.1319,198.1319,79.58397,4.47973,-999.00,-999.00,-999.0,no,no,no,300534060557700,NOMAD,AWI/USIABP,MOSAiC,North
2020-07-16T03:20:00Z,1594869601,2020,3,20,198.1389,198.1389,79.5835,4.48284,-999.00,-999.00,-999.0,no,no,no,300534060557700,NOMAD,AWI/USIABP,MOSAiC,North
2020-07-16T03:29:57Z,1594870197,2020,3,30,198.1458,198.1458,79.58315,4.48749,-999.00,-999.00,-999.0,no,no,no,300534060557700,NOMAD,AWI/USIABP,MOSAiC,North
2020-07-16T03:40:01Z,1594870802,2020,3,40,198.1528,198.1528,79.58293,4.48993,-999.00,-999.00,-999.0,no,no,no,300534060557700,NOMAD,AWI/USIABP,MOSAiC,North
2020-07-16T03:49:58Z,1594871398,2020,3,50,198.1597,198.1597,79.58273,4.49282,-999.00,-999.00,-999.0,no,no,no,300534060557700,NOMAD,AWI/USIABP,MOSAiC,North
2020-07-16T04:00:02Z,1594872003,2020,4,0,198.1667,198.1667,79.58248,4.49533,-999.00,-999.00,-999.0,no,no,no,300534060557700,NOMAD,AWI/USIABP,MOSAiC,North
2020-07-16T04:09:59Z,1594872599,2020,4,10,198.1736,198.1736,79.58232,4.4992,-999.00,-999.00,-999.0,no,no,no,300534060557700,NOMAD,AWI/USIABP,MOSAiC,North
2020-07-16T04:20:03Z,1594873204,2020,4,20,198.1806,198.1806,79.58186,4.5021,-999.00,-999.00,-999.0,no,no,no,300534060557700,NOMAD,AWI/USIABP,MOSAiC,North
2020-07-16T04:30:00Z,1594873800,2020,4,30,198.1875,198.1875,79.58161,4.50673,-999.00,-999.00,-999.0,no,no,no,300534060557700,NOMAD,AWI/USIABP,MOSAiC,North
2020-07-16T04:39:56Z,1594874396,2020,4,40,198.1944,198.1944,79.58131,4.51038,-999.00,-999.00,-999.0,no,no,no,300534060557700,NOMAD,AWI/USIABP,MOSAiC,North
2020-07-16T04:50:00Z,1594875001,2020,4,50,198.2014,198.2014,79.58096,4.51345,-999.00,-999.00,-999.0,no,no,no,300534060557700,NOMAD,AWI/USIABP,MOSAiC,North
2020-07-16T04:59:57Z,1594875597,2020,5,0,198.2083,198.2083,79.58066,4.516,-999.00,-999.00,-999.0,no,no,no,300534060557700,NOMAD,AWI/USIABP,MOSAiC,North
2020-07-16T05:10:01Z,1594876202,2020,5,10,198.2153,198.2153,79.58054,4.51799,-999.00,-999.00,-999.0,no,no,no,300534060557700,NOMAD,AWI/USIABP,MOSAiC,North
2020-07-16T05:19:58Z,1594876798,2020,5,20,198.2222,198.2222,79.58026,4.52112,-999.00,-999.00,-999.0,no,no,no,300534060557700,NOMAD,AWI/USIABP,MOSAiC,North
2020-07-16T05:30:02Z,1594877403,2020,5,30,198.2292,198.2292,79.58019,4.52477,-999.00,-999.00,-999.0,no,no,no,300534060557700,NOMAD,AWI/USIABP,MOSAiC,North
2020-07-16T05:39:59Z,1594877999,2020,5,40,198.2361,198.2361,79.58012,4.52915,-999.00,-999.00,-999.0,no,no,no,300534060557700,NOMAD,AWI/USIABP,MOSAiC,North
2020-07-16T05:50:03Z,1594878604,2020,5,50,198.2431,198.2431,79.57996,4.53234,-999.00,-999.00,-999.0,no,no,no,300534060557700,NOMAD,AWI/USIABP,MOSAiC,North
2020-07-16T06:00:00Z,1594879200,2020,6,0,198.25,198.25,79.57989,4.53429,-999.00,-999.00,-999.0,no,no,no,300534060557700,NOMAD,AWI/USIABP,MOSAiC,North
2020-07-16T06:09:56Z,1594879796,2020,6,10,198.2569,198.2569,79.57983,4.53778,-999.00,-999.00,-999.0,no,no,no,300534060557700,NOMAD,AWI/USIABP,MOSAiC,North
2020-07-16T06:20:00Z,1594880401,2020,6,20,198.2639,198.2639,79.57974,4.54047,-999.00,-999.00,-999.0,no,no,no,300534060557700,NOMAD,AWI/USIABP,MOSAiC,North
2020-07-16T06:29:57Z,1594880997,2020,6,30,198.2708,198.2708,79.57966,4.54292,-999.00,-999.00,-999.0,no,no,no,300534060557700,NOMAD,AWI/USIABP,MOSAiC,North
2020-07-16T06:40:01Z,1594881602,2020,6,40,198.2778,198.2778,79.57967,4.54684,-999.00,-999.00,-999.0,no,no,no,300534060557700,NOMAD,AWI/USIABP,MOSAiC,North
2020-07-16T06:49:58Z,1594882198,2020,6,50,198.2847,198.2847,79.57972,4.54958,-999.00,-999.00,-999.0,no,no,no,300534060557700,NOMAD,AWI/USIABP,MOSAiC,North
2020-07-16T07:00:02Z,1594882803,2020,7,0,198.2917,198.2917,79.57965,4.5526,-999.00,-999.00,-999.0,no,no,no,300534060557700,NOMAD,AWI/USIABP,MOSAiC,North
2020-07-16T07:09:59Z,1594883399,2020,7,10,198.2986,198.2986,79.57947,4.55702,-999.00,-999.00,-999.0,no,no,no,300534060557700,NOMAD,AWI/USIABP,MOSAiC,North
2020-07-16T07:20:03Z,1594884004,2020,7,20,198.3056,198.3056,79.5793,4.5607,-999.00,-999.00,-999.0,no,no,no,300534060557700,NOMAD,AWI/USIABP,MOSAiC,North
2020-07-16T07:30:00Z,1594884600,2020,7,30,198.3125,198.3125,79.57909,4.56372,-999.00,-999.00,-999.0,no,no,no,300534060557700,NOMAD,AWI/USIABP,MOSAiC,North
2020-07-16T07:39:56Z,1594885196,2020,7,40,198.3194,198.3194,79.57895,4.56614,-999.00,-999.00,-999.0,no,no,no,300534060557700,NOMAD,AWI/USIABP,MOSAiC,North
2020-07-16T07:50:00Z,1594885801,2020,7,50,198.3264,198.3264,79.57903,4.57007,-999.00,-999.00,-999.0,no,no,no,300534060557700,NOMAD,AWI/USIABP,MOSAiC,North
2020-07-16T07:59:57Z,1594886397,2020,8,0,198.3333,198.3333,79.57902,4.57381,-999.00,-999.00,-999.0,no,no,no,300534060557700,NOMAD,AWI/USIABP,MOSAiC,North
2020-07-16T08:10:01Z,1594887002,2020,8,10,198.3403,198.3403,79.57914,4.5769,-999.00,-999.00,-999.0,no,no,no,300534060557700,NOMAD,AWI/USIABP,MOSAiC,North
2020-07-16T08:19:58Z,1594887598,2020,8,20,198.3472,198.3472,79.57915,4.58034,-999.00,-999.00,-999.0,no,no,no,300534060557700,NOMAD,AWI/USIABP,MOSAiC,North
2020-07-16T08:30:02Z,1594888203,2020,8,30,198.3542,198.3542,79.57926,4.58494,-999.00,-999.00,-999.0,no,no,no,300534060557700,NOMAD,AWI/USIABP,MOSAiC,North
2020-07-16T08:39:59Z,1594888799,2020,8,40,198.3611,198.3611,79.57938,4.58952,-999.00,-999.00,-999.0,no,no,no,300534060557700,NOMAD,AWI/USIABP,MOSAiC,North
2020-07-16T08:50:03Z,1594889404,2020,8,50,198.3681,198.3681,79.57939,4.59428,-999.00,-999.00,-999.0,no,no,no,300534060557700,NOMAD,AWI/USIABP,MOSAiC,North
2020-07-16T09:00:00Z,1594890000,2020,9,0,198.375,198.375,79.5793,4.59954,-999.00,-999.00,-999.0,no,no,no,300534060557700,NOMAD,AWI/USIABP,MOSAiC,North
2020-07-16T09:09:56Z,1594890596,2020,9,10,198.3819,198.3819,79.57934,4.60361,-999.00,-999.00,-999.0,no,no,no,300534060557700,NOMAD,AWI/USIABP,MOSAiC,North
2020-07-16T09:20:00Z,1594891201,2020,9,20,198.3889,198.3889,79.57927,4.60787,-999.00,-999.00,-999.0,no,no,no,300534060557700,NOMAD,AWI/USIABP,MOSAiC,North
2020-07-16T09:29:57Z,1594891797,2020,9,30,198.3958,198.3958,79.57911,4.61225,-999.00,-999.00,-999.0,no,no,no,300534060557700,NOMAD,AWI/USIABP,MOSAiC,North
2020-07-16T09:40:01Z,1594892402,2020,9,40,198.4028,198.4028,79.57895,4.61511,-999.00,-999.00,-999.0,no,no,no,300534060557700,NOMAD,AWI/USIABP,MOSAiC,North
2020-07-16T09:49:58Z,1594892998,2020,9,50,198.4097,198.4097,79.57877,4.6166,-999.00,-999.00,-999.0,no,no,no,300534060557700,NOMAD,AWI/USIABP,MOSAiC,North
2020-07-16T10:00:02Z,1594893603,2020,10,0,198.4167,198.4167,79.57852,4.61906,-999.00,-999.00,-999.0,no,no,no,300534060557700,NOMAD,AWI/USIABP,MOSAiC,North
2020-07-16T10:09:59Z,1594894199,2020,10,10,198.4236,198.4236,79.57829,4.62231,-999.00,-999.00,-999.0,no,no,no,300534060557700,NOMAD,AWI/USIABP,MOSAiC,North
2020-07-16T10:20:03Z,1594894804,2020,10,20,198.4306,198.4306,79.57795,4.62529,-999.00,-999.00,-999.0,no,no,no,300534060557700,NOMAD,AWI/USIABP,MOSAiC,North
2020-07-16T10:30:00Z,1594895400,2020,10,30,198.4375,198.4375,79.57768,4.62767,-999.00,-999.00,-999.0,no,no,no,300534060557700,NOMAD,AWI/USIABP,MOSAiC,North
2020-07-16T10:39:56Z,1594895996,2020,10,40,198.4444,198.4444,79.57764,4.62907,-999.00,-999.00,-999.0,no,no,no,300534060557700,NOMAD,AWI/USIABP,MOSAiC,North
2020-07-16T10:50:00Z,1594896601,2020,10,50,198.4514,198.4514,79.57755,4.63091,-999.00,-999.00,-999.0,no,no,no,300534060557700,NOMAD,AWI/USIABP,MOSAiC,North
2020-07-16T10:59:57Z,1594897197,2020,11,0,198.4583,198.4583,79.57749,4.63284,-999.00,-999.00,-999.0,no,no,no,300534060557700,NOMAD,AWI/USIABP,MOSAiC,North
2020-07-16T11:10:01Z,1594897802,2020,11,10,198.4653,198.4653,79.57735,4.63486,-999.00,-999.00,-999.0,no,no,no,300534060557700,NOMAD,AWI/USIABP,MOSAiC,North
2020-07-16T11:19:58Z,1594898398,2020,11,20,198.4722,198.4722,79.57729,4.63652,-999.00,-999.00,-999.0,no,no,no,300534060557700,NOMAD,AWI/USIABP,MOSAiC,North
2020-07-16T11:30:02Z,1594899003,2020,11,30,198.4792,198.4792,79.57723,4.63668,-999.00,-999.00,-999.0,no,no,no,300534060557700,NOMAD,AWI/USIABP,MOSAiC,North
2020-07-16T11:39:59Z,1594899599,2020,11,40,198.4861,198.4861,79.57719,4.6377,-999.00,-999.00,-999.0,no,no,no,300534060557700,NOMAD,AWI/USIABP,MOSAiC,North
2020-07-16T11:50:03Z,1594900204,2020,11,50,198.4931,198.4931,79.57729,4.63867,-999.00,-999.00,-999.0,no,no,no,300534060557700,NOMAD,AWI/USIABP,MOSAiC,North
2020-07-16T12:00:00Z,1594900800,2020,12,0,198.5,198.5,79.57731,4.63929,-999.00,-999.00,-999.0,no,no,no,300534060557700,NOMAD,AWI/USIABP,MOSAiC,North
2020-07-16T12:09:56Z,1594901396,2020,12,10,198.5069,198.5069,79.57724,4.64006,-999.00,-999.00,-999.0,no,no,no,300534060557700,NOMAD,AWI/USIABP,MOSAiC,North
2020-07-16T12:20:00Z,1594902001,2020,12,20,198.5139,198.5139,79.57722,4.64062,-999.00,-999.00,-999.0,no,no,no,300534060557700,NOMAD,AWI/USIABP,MOSAiC,North
2020-07-16T12:29:57Z,1594902597,2020,12,30,198.5208,198.5208,79.57732,4.64061,-999.00,-999.00,-999.0,no,no,no,300534060557700,NOMAD,AWI/USIABP,MOSAiC,North
2020-07-16T12:40:01Z,1594903202,2020,12,40,198.5278,198.5278,79.57743,4.64062,-999.00,-999.00,-999.0,no,no,no,300534060557700,NOMAD,AWI/USIABP,MOSAiC,North
2020-07-16T12:49:58Z,1594903798,2020,12,50,198.5347,198.5347,79.57756,4.64165,-999.00,-999.00,-999.0,no,no,no,300534060557700,NOMAD,AWI/USIABP,MOSAiC,North
2020-07-16T13:00:02Z,1594904403,2020,13,0,198.5417,198.5417,79.57775,4.64198,-999.00,-999.00,-999.0,no,no,no,300534060557700,NOMAD,AWI/USIABP,MOSAiC,North
2020-07-16T13:09:59Z,1594904999,2020,13,10,198.5486,198.5486,79.5779,4.64157,-999.00,-999.00,-999.0,no,no,no,300534060557700,NOMAD,AWI/USIABP,MOSAiC,North
2020-07-16T13:20:03Z,1594905604,2020,13,20,198.5556,198.5556,79.57821,4.64069,-999.00,-999.00,-999.0,no,no,no,300534060557700,NOMAD,AWI/USIABP,MOSAiC,North
2020-07-16T13:30:00Z,1594906200,2020,13,30,198.5625,198.5625,79.57846,4.64109,-999.00,-999.00,-999.0,no,no,no,300534060557700,NOMAD,AWI/USIABP,MOSAiC,North
2020-07-16T13:39:56Z,1594906796,2020,13,40,198.5694,198.5694,79.57874,4.64184,-999.00,-999.00,-999.0,no,no,no,300534060557700,NOMAD,AWI/USIABP,MOSAiC,North
2020-07-16T13:50:00Z,1594907401,2020,13,50,198.5764,198.5764,79.57903,4.64297,-999.00,-999.00,-999.0,no,no,no,300534060557700,NOMAD,AWI/USIABP,MOSAiC,North
2020-07-16T13:59:57Z,1594907997,2020,14,0,198.5833,198.5833,79.57929,4.64415,-999.00,-999.00,-999.0,no,no,no,300534060557700,NOMAD,AWI/USIABP,MOSAiC,North
2020-07-16T14:10:01Z,1594908602,2020,14,10,198.5903,198.5903,79.57954,4.64577,-999.00,-999.00,-999.0,no,no,no,300534060557700,NOMAD,AWI/USIABP,MOSAiC,North
2020-07-16T14:19:58Z,1594909198,2020,14,20,198.5972,198.5972,79.57979,4.64781,-999.00,-999.00,-999.0,no,no,no,300534060557700,NOMAD,AWI/USIABP,MOSAiC,North
2020-07-16T14:30:02Z,1594909803,2020,14,30,198.6042,198.6042,79.57997,4.64963,-999.00,-999.00,-999.0,no,no,no,300534060557700,NOMAD,AWI/USIABP,MOSAiC,North
2020-07-16T14:39:59Z,1594910399,2020,14,40,198.6111,198.6111,79.58011,4.65153,-999.00,-999.00,-999.0,no,no,no,300534060557700,NOMAD,AWI/USIABP,MOSAiC,North
2020-07-16T14:50:03Z,1594911004,2020,14,50,198.6181,198.6181,79.58036,4.65226,-999.00,-999.00,-999.0,no,no,no,300534060557700,NOMAD,AWI/USIABP,MOSAiC,North
2020-07-16T15:00:00Z,1594911600,2020,15,0,198.625,198.625,79.58073,4.65268,-999.00,-999.00,-999.0,no,no,no,300534060557700,NOMAD,AWI/USIABP,MOSAiC,North
2020-07-16T15:09:56Z,1594912196,2020,15,10,198.6319,198.6319,79.58112,4.65384,-999.00,-999.00,-999.0,no,no,no,300534060557700,NOMAD,AWI/USIABP,MOSAiC,North
2020-07-16T15:20:00Z,1594912801,2020,15,20,198.6389,198.6389,79.58142,4.65457,-999.00,-999.00,-999.0,no,no,no,300534060557700,NOMAD,AWI/USIABP,MOSAiC,North
2020-07-16T15:29:57Z,1594913397,2020,15,30,198.6458,198.6458,79.58183,4.65396,-999.00,-999.00,-999.0,no,no,no,300534060557700,NOMAD,AWI/USIABP,MOSAiC,North
2020-07-16T15:40:01Z,1594914002,2020,15,40,198.6528,198.6528,79.58233,4.65342,-999.00,-999.00,-999.0,no,no,no,300534060557700,NOMAD,AWI/USIABP,MOSAiC,North
2020-07-16T15:49:58Z,1594914598,2020,15,50,198.6597,198.6597,79.58289,4.6534,-999.00,-999.00,-999.0,no,no,no,300534060557700,NOMAD,AWI/USIABP,MOSAiC,North
2020-07-16T16:00:02Z,1594915203,2020,16,0,198.6667,198.6667,79.58345,4.65287,-999.00,-999.00,-999.0,no,no,no,300534060557700,NOMAD,AWI/USIABP,MOSAiC,North
2020-07-16T16:09:59Z,1594915799,2020,16,10,198.6736,198.6736,79.58398,4.65261,-999.00,-999.00,-999.0,no,no,no,300534060557700,NOMAD,AWI/USIABP,MOSAiC,North
2020-07-16T16:20:03Z,1594916404,2020,16,20,198.6806,198.6806,79.58462,4.6532,-999.00,-999.00,-999.0,no,no,no,300534060557700,NOMAD,AWI/USIABP,MOSAiC,North
2020-07-16T16:30:00Z,1594917000,2020,16,30,198.6875,198.6875,79.58543,4.65377,-999.00,-999.00,-999.0,no,no,no,300534060557700,NOMAD,AWI/USIABP,MOSAiC,North
2020-07-16T16:39:56Z,1594917596,2020,16,40,198.6944,198.6944,79.58617,4.65569,-999.00,-999.00,-999.0,no,no,no,300534060557700,NOMAD,AWI/USIABP,MOSAiC,North
2020-07-16T16:50:00Z,1594918201,2020,16,50,198.7014,198.7014,79.58658,4.65788,-999.00,-999.00,-999.0,no,no,no,300534060557700,NOMAD,AWI/USIABP,MOSAiC,North
2020-07-16T16:59:57Z,1594918797,2020,17,0,198.7083,198.7083,79.58689,4.65929,-999.00,-999.00,-999.0,no,no,no,300534060557700,NOMAD,AWI/USIABP,MOSAiC,North
2020-07-16T17:10:01Z,1594919402,2020,17,10,198.7153,198.7153,79.58724,4.66036,-999.00,-999.00,-999.0,no,no,no,300534060557700,NOMAD,AWI/USIABP,MOSAiC,North
2020-07-16T17:19:58Z,1594919998,2020,17,20,198.7222,198.7222,79.58752,4.66302,-999.00,-999.00,-999.0,no,no,no,300534060557700,NOMAD,AWI/USIABP,MOSAiC,North
2020-07-16T17:30:02Z,1594920603,2020,17,30,198.7292,198.7292,79.58783,4.66424,-999.00,-999.00,-999.0,no,no,no,300534060557700,NOMAD,AWI/USIABP,MOSAiC,North
2020-07-16T17:39:59Z,1594921199,2020,17,40,198.7361,198.7361,79.58823,4.66598,-999.00,-999.00,-999.0,no,no,no,300534060557700,NOMAD,AWI/USIABP,MOSAiC,North
2020-07-16T17:50:03Z,1594921804,2020,17,50,198.7431,198.7431,79.58858,4.66733,-999.00,-999.00,-999.0,no,no,no,300534060557700,NOMAD,AWI/USIABP,MOSAiC,North
2020-07-16T18:00:00Z,1594922400,2020,18,0,198.75,198.75,79.58891,4.66868,-999.00,-999.00,-999.0,no,no,no,300534060557700,NOMAD,AWI/USIABP,MOSAiC,North
2020-07-16T18:09:56Z,1594922996,2020,18,10,198.7569,198.7569,79.58918,4.67172,-999.00,-999.00,-999.0,no,no,no,300534060557700,NOMAD,AWI/USIABP,MOSAiC,North
2020-07-16T18:20:00Z,1594923601,2020,18,20,198.7639,198.7639,79.5895,4.67318,-999.00,-999.00,-999.0,no,no,no,300534060557700,NOMAD,AWI/USIABP,MOSAiC,North
2020-07-16T18:29:57Z,1594924197,2020,18,30,198.7708,198.7708,79.58983,4.67458,-999.00,-999.00,-999.0,no,no,no,300534060557700,NOMAD,AWI/USIABP,MOSAiC,North
2020-07-16T18:40:01Z,1594924802,2020,18,40,198.7778,198.7778,79.59023,4.67581,-999.00,-999.00,-999.0,no,no,no,300534060557700,NOMAD,AWI/USIABP,MOSAiC,North
2020-07-16T18:49:58Z,1594925398,2020,18,50,198.7847,198.7847,79.5905,4.67699,-999.00,-999.00,-999.0,no,no,no,300534060557700,NOMAD,AWI/USIABP,MOSAiC,North
2020-07-16T19:00:02Z,1594926003,2020,19,0,198.7917,198.7917,79.59063,4.6782,-999.00,-999.00,-999.0,no,no,no,300534060557700,NOMAD,AWI/USIABP,MOSAiC,North
2020-07-16T19:09:59Z,1594926599,2020,19,10,198.7986,198.7986,79.59094,4.68006,-999.00,-999.00,-999.0,no,no,no,300534060557700,NOMAD,AWI/USIABP,MOSAiC,North
2020-07-16T19:20:03Z,1594927204,2020,19,20,198.8056,198.8056,79.59114,4.68093,-999.00,-999.00,-999.0,no,no,no,300534060557700,NOMAD,AWI/USIABP,MOSAiC,North
2020-07-16T19:30:00Z,1594927800,2020,19,30,198.8125,198.8125,79.59111,4.68228,-999.00,-999.00,-999.0,no,no,no,300534060557700,NOMAD,AWI/USIABP,MOSAiC,North
2020-07-16T19:39:56Z,1594928396,2020,19,40,198.8194,198.8194,79.59117,4.6837,-999.00,-999.00,-999.0,no,no,no,300534060557700,NOMAD,AWI/USIABP,MOSAiC,North
2020-07-16T19:50:00Z,1594929001,2020,19,50,198.8264,198.8264,79.59138,4.68521,-999.00,-999.00,-999.0,no,no,no,300534060557700,NOMAD,AWI/USIABP,MOSAiC,North
2020-07-16T19:59:57Z,1594929597,2020,20,0,198.8333,198.8333,79.59162,4.68656,-999.00,-999.00,-999.0,no,no,no,300534060557700,NOMAD,AWI/USIABP,MOSAiC,North
2020-07-16T20:10:01Z,1594930202,2020,20,10,198.8403,198.8403,79.59181,4.68803,-999.00,-999.00,-999.0,no,no,no,300534060557700,NOMAD,AWI/USIABP,MOSAiC,North
2020-07-16T20:19:58Z,1594930798,2020,20,20,198.8472,198.8472,79.59205,4.69083,-999.00,-999.00,-999.0,no,no,no,300534060557700,NOMAD,AWI/USIABP,MOSAiC,North
2020-07-16T20:30:02Z,1594931403,2020,20,30,198.8542,198.8542,79.59207,4.69318,-999.00,-999.00,-999.0,no,no,no,300534060557700,NOMAD,AWI/USIABP,MOSAiC,North
2020-07-16T20:39:59Z,1594931999,2020,20,40,198.8611,198.8611,79.59212,4.69455,-999.00,-999.00,-999.0,no,no,no,300534060557700,NOMAD,AWI/USIABP,MOSAiC,North
2020-07-16T20:50:03Z,1594932604,2020,20,50,198.8681,198.8681,79.592,4.69618,-999.00,-999.00,-999.0,no,no,no,300534060557700,NOMAD,AWI/USIABP,MOSAiC,North
2020-07-16T21:00:00Z,1594933200,2020,21,0,198.875,198.875,79.59196,4.69669,-999.00,-999.00,-999.0,no,no,no,300534060557700,NOMAD,AWI/USIABP,MOSAiC,North
2020-07-16T21:09:56Z,1594933796,2020,21,10,198.8819,198.8819,79.59202,4.69733,-999.00,-999.00,-999.0,no,no,no,300534060557700,NOMAD,AWI/USIABP,MOSAiC,North
2020-07-16T21:20:00Z,1594934401,2020,21,20,198.8889,198.8889,79.59207,4.69943,-999.00,-999.00,-999.0,no,no,no,300534060557700,NOMAD,AWI/USIABP,MOSAiC,North
2020-07-16T21:29:57Z,1594934997,2020,21,30,198.8958,198.8958,79.59221,4.70264,-999.00,-999.00,-999.0,no,no,no,300534060557700,NOMAD,AWI/USIABP,MOSAiC,North
2020-07-16T21:40:01Z,1594935602,2020,21,40,198.9028,198.9028,79.59236,4.70483,-999.00,-999.00,-999.0,no,no,no,300534060557700,NOMAD,AWI/USIABP,MOSAiC,North
2020-07-16T21:49:58Z,1594936198,2020,21,50,198.9097,198.9097,79.59244,4.70709,-999.00,-999.00,-999.0,no,no,no,300534060557700,NOMAD,AWI/USIABP,MOSAiC,North
2020-07-16T22:00:02Z,1594936803,2020,22,0,198.9167,198.9167,79.59249,4.70991,-999.00,-999.00,-999.0,no,no,no,300534060557700,NOMAD,AWI/USIABP,MOSAiC,North
2020-07-16T22:09:59Z,1594937399,2020,22,10,198.9236,198.9236,79.59245,4.71317,-999.00,-999.00,-999.0,no,no,no,300534060557700,NOMAD,AWI/USIABP,MOSAiC,North
2020-07-16T22:20:03Z,1594938004,2020,22,20,198.9306,198.9306,79.59253,4.71714,-999.00,-999.00,-999.0,no,no,no,300534060557700,NOMAD,AWI/USIABP,MOSAiC,North
2020-07-16T22:30:00Z,1594938600,2020,22,30,198.9375,198.9375,79.59261,4.72081,-999.00,-999.00,-999.0,no,no,no,300534060557700,NOMAD,AWI/USIABP,MOSAiC,North
2020-07-16T22:39:56Z,1594939196,2020,22,40,198.9444,198.9444,79.59264,4.72335,-999.00,-999.00,-999.0,no,no,no,300534060557700,NOMAD,AWI/USIABP,MOSAiC,North
2020-07-16T22:50:00Z,1594939801,2020,22,50,198.9514,198.9514,79.59258,4.72617,-999.00,-999.00,-999.0,no,no,no,300534060557700,NOMAD,AWI/USIABP,MOSAiC,North
2020-07-16T22:59:57Z,1594940397,2020,23,0,198.9583,198.9583,79.59255,4.72857,-999.00,-999.00,-999.0,no,no,no,300534060557700,NOMAD,AWI/USIABP,MOSAiC,North
2020-07-16T23:10:01Z,1594941002,2020,23,10,198.9653,198.9653,79.59257,4.73056,-999.00,-999.00,-999.0,no,no,no,300534060557700,NOMAD,AWI/USIABP,MOSAiC,North
2020-07-16T23:19:58Z,1594941598,2020,23,20,198.9722,198.9722,79.59273,4.7322,-999.00,-999.00,-999.0,no,no,no,300534060557700,NOMAD,AWI/USIABP,MOSAiC,North
2020-07-16T23:30:02Z,1594942203,2020,23,30,198.9792,198.9792,79.59298,4.73432,-999.00,-999.00,-999.0,no,no,no,300534060557700,NOMAD,AWI/USIABP,MOSAiC,North
2020-07-16T23:39:59Z,1594942799,2020,23,40,198.9861,198.9861,79.59305,4.73663,-999.00,-999.00,-999.0,no,no,no,300534060557700,NOMAD,AWI/USIABP,MOSAiC,North
2020-07-16T23:50:03Z,1594943404,2020,23,50,198.9931,198.9931,79.5932,4.73828,-999.00,-999.00,-999.0,no,no,no,300534060557700,NOMAD,AWI/USIABP,MOSAiC,North
2020-07-17T00:00:00Z,1594944000,2020,0,0,199.0,199.0,79.5933,4.73942,-999.00,-999.00,-999.0,no,no,no,300534060557700,NOMAD,AWI/USIABP,MOSAiC,North
2020-07-17T00:09:56Z,1594944596,2020,0,10,199.0069,199.0069,79.5936,4.74089,-999.00,-999.00,-999.0,no,no,no,300534060557700,NOMAD,AWI/USIABP,MOSAiC,North
2020-07-17T00:20:00Z,1594945201,2020,0,20,199.0139,199.0139,79.59375,4.74249,-999.00,-999.00,-999.0,no,no,no,300534060557700,NOMAD,AWI/USIABP,MOSAiC,North
2020-07-17T00:29:57Z,1594945797,2020,0,30,199.0208,199.0208,79.59402,4.74446,-999.00,-999.00,-999.0,no,no,no,300534060557700,NOMAD,AWI/USIABP,MOSAiC,North
2020-07-17T00:40:01Z,1594946402,2020,0,40,199.0278,199.0278,79.59427,4.74501,-999.00,-999.00,-999.0,no,no,no,300534060557700,NOMAD,AWI/USIABP,MOSAiC,North
2020-07-17T00:49:58Z,1594946998,2020,0,50,199.0347,199.0347,79.59439,4.7458,-999.00,-999.00,-999.0,no,no,no,300534060557700,NOMAD,AWI/USIABP,MOSAiC,North
2020-07-17T01:00:02Z,1594947603,2020,1,0,199.0417,199.0417,79.59442,4.74705,-999.00,-999.00,-999.0,no,no,no,300534060557700,NOMAD,AWI/USIABP,MOSAiC,North
2020-07-17T01:09:59Z,1594948199,2020,1,10,199.0486,199.0486,79.59442,4.74787,-999.00,-999.00,-999.0,no,no,no,300534060557700,NOMAD,AWI/USIABP,MOSAiC,North
2020-07-17T01:20:03Z,1594948804,2020,1,20,199.0556,199.0556,79.59456,4.74653,-999.00,-999.00,-999.0,no,no,no,300534060557700,NOMAD,AWI/USIABP,MOSAiC,North
2020-07-17T01:30:00Z,1594949400,2020,1,30,199.0625,199.0625,79.59484,4.74442,-999.00,-999.00,-999.0,no,no,no,300534060557700,NOMAD,AWI/USIABP,MOSAiC,North